User: anonymous   Login
Location: Kawakawa
(35.3830°S, 174.0670°E)
Time: 03:47:14
(UTC+13:00)
Language:

deb Explorer IX - Orbit

View from above orbital plane
View from above orbital plane
View from above satellite
View from above satellite

Ground track
Ground track

The orbit data is extracted from the following two-line orbital elements,

1 00085U 61004C   21019.89770388  .00002914  00000-0  61072-3 0  9992
2 00085  38.7759 356.1339 0394337 143.2105 219.6396 14.21556274961895
Epoch (UTC): 19 January 2021 21:32:41
Eccentricity: 0.0394337
inclination: 38.7759°
perigee height: 536 km
apogee height: 1104 km
right ascension of ascending node: 356.1339°
argument of perigee: 143.2105°
revolutions per day: 14.21556274
mean anomaly at epoch: 219.6396°
orbit number at epoch: 96189

The dashed part of the orbit path shows where the satellite is in the earth's shadow,  

DLR